Year,Month,Day,Hour,Minute,Value (Times are PST for temperature in C)
2018,05,17,00,00,11.20
2018,05,17,00,01,11.20
2018,05,17,00,02,11.20
2018,05,17,00,03,11.20
2018,05,17,00,04,11.20
2018,05,17,00,05,11.20
2018,05,17,00,06,11.20
2018,05,17,00,07,11.20
2018,05,17,00,08,11.20
2018,05,17,00,09,11.20
2018,05,17,00,10,11.20
2018,05,17,00,11,11.20
2018,05,17,00,12,11.20
2018,05,17,00,13,11.20
2018,05,17,00,14,11.20
2018,05,17,00,15,11.20
2018,05,17,00,16,11.20
2018,05,17,00,17,11.20
2018,05,17,00,18,11.10
2018,05,17,00,19,11.10
2018,05,17,00,20,11.10
2018,05,17,00,21,11.10
2018,05,17,00,22,11.10
2018,05,17,00,23,11.10
2018,05,17,00,24,11.10
2018,05,17,00,25,11.10
2018,05,17,00,26,11.10
2018,05,17,00,27,11.10
2018,05,17,00,28,11.10
2018,05,17,00,29,11.10
2018,05,17,00,30,11.10
2018,05,17,00,31,11.10
2018,05,17,00,32,11.10
2018,05,17,00,33,11.10
2018,05,17,00,34,11.10
2018,05,17,00,35,11.10
2018,05,17,00,36,11.10
2018,05,17,00,37,11.10
2018,05,17,00,38,11.10
2018,05,17,00,39,11.10
2018,05,17,00,40,11.10
2018,05,17,00,41,11.10
2018,05,17,00,42,11.10
2018,05,17,00,43,11.00
2018,05,17,00,44,11.00
2018,05,17,00,45,11.00
2018,05,17,00,46,11.00
2018,05,17,00,47,11.00
2018,05,17,00,48,11.00
2018,05,17,00,49,11.00
2018,05,17,00,50,11.00
2018,05,17,00,51,11.00
2018,05,17,00,52,11.00
2018,05,17,00,53,11.00
2018,05,17,00,54,11.00
2018,05,17,00,55,11.00
2018,05,17,00,56,11.00
2018,05,17,00,57,10.90
2018,05,17,00,58,10.90
2018,05,17,00,59,10.90
2018,05,17,01,00,10.90
2018,05,17,01,01,10.90
2018,05,17,01,02,10.90
2018,05,17,01,03,10.90
2018,05,17,01,04,10.90
2018,05,17,01,05,10.90
2018,05,17,01,06,10.90
2018,05,17,01,07,10.90
2018,05,17,01,08,10.90
2018,05,17,01,09,10.90
2018,05,17,01,10,10.90
2018,05,17,01,11,10.90
2018,05,17,01,12,10.90
2018,05,17,01,13,10.90
2018,05,17,01,14,10.90
2018,05,17,01,15,10.90
2018,05,17,01,16,10.90
2018,05,17,01,17,10.90
2018,05,17,01,18,10.90
2018,05,17,01,19,10.90
2018,05,17,01,20,10.90
2018,05,17,01,21,10.80
2018,05,17,01,22,10.80
2018,05,17,01,23,10.80
2018,05,17,01,24,10.80
2018,05,17,01,25,10.80
2018,05,17,01,26,10.80
2018,05,17,01,27,10.80
2018,05,17,01,28,10.80
2018,05,17,01,29,10.80
2018,05,17,01,30,10.80
2018,05,17,01,31,10.80
2018,05,17,01,32,10.80
2018,05,17,01,33,10.80
2018,05,17,01,34,10.80
2018,05,17,01,35,10.80
2018,05,17,01,36,10.80
2018,05,17,01,37,10.80
2018,05,17,01,38,10.80
2018,05,17,01,39,10.80
2018,05,17,01,40,10.80
2018,05,17,01,41,10.80
2018,05,17,01,42,10.80
2018,05,17,01,43,10.80
2018,05,17,01,44,10.80
2018,05,17,01,45,10.80
2018,05,17,01,46,10.80
2018,05,17,01,47,10.80
2018,05,17,01,48,10.80
2018,05,17,01,49,10.80
2018,05,17,01,50,10.80
2018,05,17,01,51,10.80
2018,05,17,01,52,10.80
2018,05,17,01,53,10.80
2018,05,17,01,54,10.80
2018,05,17,01,55,10.70
2018,05,17,01,56,10.70
2018,05,17,01,57,10.70
2018,05,17,01,58,10.70
2018,05,17,01,59,10.70
2018,05,17,02,00,10.70
2018,05,17,02,01,10.70
2018,05,17,02,02,10.70
2018,05,17,02,03,10.70
2018,05,17,02,04,10.70
2018,05,17,02,05,10.70
2018,05,17,02,06,10.70
2018,05,17,02,07,10.70
2018,05,17,02,08,10.70
2018,05,17,02,09,10.70
2018,05,17,02,10,10.70
2018,05,17,02,11,10.70
2018,05,17,02,12,10.70
2018,05,17,02,13,10.70
2018,05,17,02,14,10.70
2018,05,17,02,15,10.70
2018,05,17,02,16,10.70
2018,05,17,02,17,10.70
2018,05,17,02,18,10.70
2018,05,17,02,19,10.70
2018,05,17,02,20,10.70
2018,05,17,02,21,10.70
2018,05,17,02,22,10.60
2018,05,17,02,23,10.60
2018,05,17,02,24,10.60
2018,05,17,02,25,10.60
2018,05,17,02,26,10.60
2018,05,17,02,27,10.60
2018,05,17,02,28,10.60
2018,05,17,02,29,10.60
2018,05,17,02,30,10.60
2018,05,17,02,31,10.60
2018,05,17,02,32,10.50
2018,05,17,02,33,10.50
2018,05,17,02,34,10.50
2018,05,17,02,35,10.50
2018,05,17,02,36,10.50
2018,05,17,02,37,10.50
2018,05,17,02,38,10.50
2018,05,17,02,39,10.50
2018,05,17,02,40,10.50
2018,05,17,02,41,10.50
2018,05,17,02,42,10.40
2018,05,17,02,43,10.40
2018,05,17,02,44,10.40
2018,05,17,02,45,10.40
2018,05,17,02,46,10.40
2018,05,17,02,47,10.40
2018,05,17,02,48,10.40
2018,05,17,02,49,10.40
2018,05,17,02,50,10.40
2018,05,17,02,51,10.40
2018,05,17,02,52,10.40
2018,05,17,02,53,10.40
2018,05,17,02,54,10.40
2018,05,17,02,55,10.40
2018,05,17,02,56,10.40
2018,05,17,02,57,10.40
2018,05,17,02,58,10.40
2018,05,17,02,59,10.40
2018,05,17,03,00,10.40
2018,05,17,03,01,10.40
2018,05,17,03,02,10.40
2018,05,17,03,03,10.40
2018,05,17,03,04,10.40
2018,05,17,03,05,10.30
2018,05,17,03,06,10.30
2018,05,17,03,07,10.30
2018,05,17,03,08,10.30
2018,05,17,03,09,10.30
2018,05,17,03,10,10.30
2018,05,17,03,11,10.30
2018,05,17,03,12,10.30
2018,05,17,03,13,10.30
2018,05,17,03,14,10.30
2018,05,17,03,15,10.30
2018,05,17,03,16,10.30
2018,05,17,03,17,10.20
2018,05,17,03,18,10.20
2018,05,17,03,19,10.20
2018,05,17,03,20,10.20
2018,05,17,03,21,10.20
2018,05,17,03,22,10.20
2018,05,17,03,23,10.20
2018,05,17,03,24,10.20
2018,05,17,03,25,10.20
2018,05,17,03,26,10.20
2018,05,17,03,27,10.10
2018,05,17,03,28,10.10
2018,05,17,03,29,10.10
2018,05,17,03,30,10.10
2018,05,17,03,31,10.10
2018,05,17,03,32,10.10
2018,05,17,03,33,10.10
2018,05,17,03,34,10.10
2018,05,17,03,35,10.10
2018,05,17,03,36,10.10
2018,05,17,03,37,10.10
2018,05,17,03,38,10.00
2018,05,17,03,39,10.00
2018,05,17,03,40,10.00
2018,05,17,03,41,10.00
2018,05,17,03,42,10.00
2018,05,17,03,43,10.00
2018,05,17,03,44,10.00
2018,05,17,03,45,10.00
2018,05,17,03,46,10.00
2018,05,17,03,47,10.00
2018,05,17,03,48,10.00
2018,05,17,03,49,9.90
2018,05,17,03,50,9.90
2018,05,17,03,51,9.90
2018,05,17,03,52,9.90
2018,05,17,03,53,9.90
2018,05,17,03,54,9.90
2018,05,17,03,55,9.90
2018,05,17,03,56,9.90
2018,05,17,03,57,9.80
2018,05,17,03,58,9.80
2018,05,17,03,59,9.80
2018,05,17,04,00,9.80
2018,05,17,04,01,9.80
2018,05,17,04,02,9.80
2018,05,17,04,03,9.80
2018,05,17,04,04,9.80
2018,05,17,04,05,9.90
2018,05,17,04,06,9.90
2018,05,17,04,07,9.90
2018,05,17,04,08,9.90
2018,05,17,04,09,9.90
2018,05,17,04,10,9.90
2018,05,17,04,11,9.90
2018,05,17,04,12,9.90
2018,05,17,04,13,9.90
2018,05,17,04,14,9.90
2018,05,17,04,15,9.90
2018,05,17,04,16,9.90
2018,05,17,04,17,9.90
2018,05,17,04,18,10.00
2018,05,17,04,19,10.00
2018,05,17,04,20,9.90
2018,05,17,04,21,10.00
2018,05,17,04,22,10.00
2018,05,17,04,23,10.00
2018,05,17,04,24,10.00
2018,05,17,04,25,10.00
2018,05,17,04,26,10.00
2018,05,17,04,27,10.00
2018,05,17,04,28,10.00
2018,05,17,04,29,10.00
2018,05,17,04,30,10.00
2018,05,17,04,31,9.90
2018,05,17,04,32,9.90
2018,05,17,04,33,9.90
2018,05,17,04,34,9.90
2018,05,17,04,35,9.90
2018,05,17,04,36,9.90
2018,05,17,04,37,9.90
2018,05,17,04,38,9.90
2018,05,17,04,39,9.90
2018,05,17,04,40,9.90
2018,05,17,04,41,9.90
2018,05,17,04,42,9.90
2018,05,17,04,43,9.90
2018,05,17,04,44,9.90
2018,05,17,04,45,9.90
2018,05,17,04,46,10.00
2018,05,17,04,47,10.00
2018,05,17,04,48,10.00
2018,05,17,04,49,10.00
2018,05,17,04,50,10.00
2018,05,17,04,51,10.00
2018,05,17,04,52,10.00
2018,05,17,04,53,10.00
2018,05,17,04,54,10.00
2018,05,17,04,55,9.90
2018,05,17,04,56,9.90
2018,05,17,04,57,9.90
2018,05,17,04,58,9.90
2018,05,17,04,59,9.90
2018,05,17,05,00,9.90
2018,05,17,05,01,9.90
2018,05,17,05,02,9.90
2018,05,17,05,03,9.90
2018,05,17,05,04,9.90
2018,05,17,05,05,9.90
2018,05,17,05,06,9.90
2018,05,17,05,07,9.90
2018,05,17,05,08,9.90
2018,05,17,05,09,9.90
2018,05,17,05,10,9.90
2018,05,17,05,11,9.90
2018,05,17,05,12,9.90
2018,05,17,05,13,9.90
2018,05,17,05,14,9.90
2018,05,17,05,15,9.90
2018,05,17,05,16,9.90
2018,05,17,05,17,9.90
2018,05,17,05,18,9.90
2018,05,17,05,19,9.90
2018,05,17,05,20,9.90
2018,05,17,05,21,9.90
2018,05,17,05,22,9.90
2018,05,17,05,23,9.90
2018,05,17,05,24,9.90
2018,05,17,05,25,9.90
2018,05,17,05,26,9.90
2018,05,17,05,27,9.90
2018,05,17,05,28,9.90
2018,05,17,05,29,9.90
2018,05,17,05,30,9.90
2018,05,17,05,31,9.90
2018,05,17,05,32,9.90
2018,05,17,05,33,9.80
2018,05,17,05,34,9.80
2018,05,17,05,35,9.80
2018,05,17,05,36,9.90
2018,05,17,05,37,9.80
2018,05,17,05,38,9.80
2018,05,17,05,39,9.80
2018,05,17,05,40,9.80
2018,05,17,05,41,9.80
2018,05,17,05,42,9.80
2018,05,17,05,43,9.90
2018,05,17,05,44,9.90
2018,05,17,05,45,9.90
2018,05,17,05,46,9.90
2018,05,17,05,47,9.90
2018,05,17,05,48,9.90
2018,05,17,05,49,9.90
2018,05,17,05,50,9.90
2018,05,17,05,51,9.90
2018,05,17,05,52,9.90
2018,05,17,05,53,9.90
2018,05,17,05,54,9.90
2018,05,17,05,55,9.90
2018,05,17,05,56,9.90
2018,05,17,05,57,9.90
2018,05,17,05,58,9.90
2018,05,17,05,59,9.90
2018,05,17,06,00,9.90
2018,05,17,06,01,9.90
2018,05,17,06,02,9.90
2018,05,17,06,03,9.90
2018,05,17,06,04,9.90
2018,05,17,06,05,9.90
2018,05,17,06,06,9.90
2018,05,17,06,07,9.90
2018,05,17,06,08,9.90
2018,05,17,06,09,9.90
2018,05,17,06,10,9.90
2018,05,17,06,11,9.90
2018,05,17,06,12,9.90
2018,05,17,06,13,9.90
2018,05,17,06,14,10.00
2018,05,17,06,15,10.00
2018,05,17,06,16,10.00
2018,05,17,06,17,10.00
2018,05,17,06,18,10.00
2018,05,17,06,19,10.00
2018,05,17,06,20,10.00
2018,05,17,06,21,10.00
2018,05,17,06,22,10.00
2018,05,17,06,23,10.00
2018,05,17,06,24,10.10
2018,05,17,06,25,10.10
2018,05,17,06,26,10.10
2018,05,17,06,27,10.10
2018,05,17,06,28,10.10
2018,05,17,06,29,10.10
2018,05,17,06,30,10.10
2018,05,17,06,31,10.10
2018,05,17,06,32,10.10
2018,05,17,06,33,10.10
2018,05,17,06,34,10.10
2018,05,17,06,35,10.20
2018,05,17,06,36,10.20
2018,05,17,06,37,10.20
2018,05,17,06,38,10.20
2018,05,17,06,39,10.20
2018,05,17,06,40,10.20
2018,05,17,06,41,10.20
2018,05,17,06,42,10.20
2018,05,17,06,43,10.20
2018,05,17,06,44,10.30
2018,05,17,06,45,10.30
2018,05,17,06,46,10.30
2018,05,17,06,47,10.30
2018,05,17,06,48,10.30
2018,05,17,06,49,10.30
2018,05,17,06,50,10.30
2018,05,17,06,51,10.40
2018,05,17,06,52,10.40
2018,05,17,06,53,10.40
2018,05,17,06,54,10.40
2018,05,17,06,55,10.40
2018,05,17,06,56,10.50
2018,05,17,06,57,10.50
2018,05,17,06,58,10.50
2018,05,17,06,59,10.60
2018,05,17,07,00,10.60
2018,05,17,07,01,10.60
2018,05,17,07,02,10.70
2018,05,17,07,03,10.70
2018,05,17,07,04,10.70
2018,05,17,07,05,10.80
2018,05,17,07,06,10.80
2018,05,17,07,07,10.80
2018,05,17,07,08,10.80
2018,05,17,07,09,10.90
2018,05,17,07,10,10.90
2018,05,17,07,11,10.90
2018,05,17,07,12,10.90
2018,05,17,07,13,11.00
2018,05,17,07,14,11.00
2018,05,17,07,15,11.00
2018,05,17,07,16,11.10
2018,05,17,07,17,11.10
2018,05,17,07,18,11.10
2018,05,17,07,19,11.10
2018,05,17,07,20,11.20
2018,05,17,07,21,11.20
2018,05,17,07,22,11.20
2018,05,17,07,23,11.20
2018,05,17,07,24,11.30
2018,05,17,07,25,11.30
2018,05,17,07,26,11.30
2018,05,17,07,27,11.30
2018,05,17,07,28,11.30
2018,05,17,07,29,11.40
2018,05,17,07,30,11.40
2018,05,17,07,31,11.40
2018,05,17,07,32,11.40
2018,05,17,07,33,11.40
2018,05,17,07,34,11.40
2018,05,17,07,35,11.40
2018,05,17,07,36,11.50
2018,05,17,07,37,11.50
2018,05,17,07,38,11.50
2018,05,17,07,39,11.60
2018,05,17,07,40,11.60
2018,05,17,07,41,11.60
2018,05,17,07,42,11.60
2018,05,17,07,43,11.60
2018,05,17,07,44,11.70
2018,05,17,07,45,11.70
2018,05,17,07,46,11.70
2018,05,17,07,47,11.70
2018,05,17,07,48,11.70
2018,05,17,07,49,11.70
2018,05,17,07,50,11.70
2018,05,17,07,51,11.80
2018,05,17,07,52,11.80
2018,05,17,07,53,11.80
2018,05,17,07,54,11.90
2018,05,17,07,55,11.90
2018,05,17,07,56,11.90
2018,05,17,07,57,11.90
2018,05,17,07,58,12.00
2018,05,17,07,59,12.00
2018,05,17,08,00,12.00
2018,05,17,08,01,12.10
2018,05,17,08,02,12.10
2018,05,17,08,03,12.10
2018,05,17,08,04,12.20
2018,05,17,08,05,12.20
2018,05,17,08,06,12.20
2018,05,17,08,07,12.30
2018,05,17,08,08,12.30
2018,05,17,08,09,12.30
2018,05,17,08,10,12.30
2018,05,17,08,11,12.30
2018,05,17,08,12,12.40
2018,05,17,08,13,12.40
2018,05,17,08,14,12.40
2018,05,17,08,15,12.40
2018,05,17,08,16,12.40
2018,05,17,08,17,12.40
2018,05,17,08,18,12.40
2018,05,17,08,19,12.40
2018,05,17,08,20,12.50
2018,05,17,08,21,12.50
2018,05,17,08,22,12.60
2018,05,17,08,23,12.60
2018,05,17,08,24,12.60
2018,05,17,08,25,12.60
2018,05,17,08,26,12.70
2018,05,17,08,27,12.70
2018,05,17,08,28,12.70
2018,05,17,08,29,12.80
2018,05,17,08,30,12.80
2018,05,17,08,31,12.80
2018,05,17,08,32,12.80
2018,05,17,08,33,12.90
2018,05,17,08,34,12.90
2018,05,17,08,35,12.90
2018,05,17,08,36,13.00
2018,05,17,08,37,13.00
2018,05,17,08,38,13.10
2018,05,17,08,39,13.10
2018,05,17,08,40,13.20
2018,05,17,08,41,13.20
2018,05,17,08,42,13.20
2018,05,17,08,43,13.20
2018,05,17,08,44,13.20
2018,05,17,08,45,13.20
2018,05,17,08,46,13.30
2018,05,17,08,47,13.30
2018,05,17,08,48,13.30
2018,05,17,08,49,13.30
2018,05,17,08,50,13.30
2018,05,17,08,51,13.40
2018,05,17,08,52,13.40
2018,05,17,08,53,13.50
2018,05,17,08,54,13.60
2018,05,17,08,55,13.60
2018,05,17,08,56,13.80
2018,05,17,08,57,13.80
2018,05,17,08,58,13.90
2018,05,17,08,59,14.00
2018,05,17,09,00,14.00
2018,05,17,09,01,14.10
2018,05,17,09,02,14.10
2018,05,17,09,03,14.20
2018,05,17,09,04,14.20
2018,05,17,09,05,14.30
2018,05,17,09,06,14.40
2018,05,17,09,07,14.50
2018,05,17,09,08,14.60
2018,05,17,09,09,14.60
2018,05,17,09,10,14.60
2018,05,17,09,11,14.60
2018,05,17,09,12,14.60
2018,05,17,09,13,14.60
2018,05,17,09,14,14.60
2018,05,17,09,15,14.60
2018,05,17,09,16,14.60
2018,05,17,09,17,14.60
2018,05,17,09,18,14.60
2018,05,17,09,19,14.70
2018,05,17,09,20,14.80
2018,05,17,09,21,14.80
2018,05,17,09,22,14.90
2018,05,17,09,23,15.00
2018,05,17,09,24,15.00
2018,05,17,09,25,15.00
2018,05,17,09,26,15.00
2018,05,17,09,27,15.00
2018,05,17,09,28,14.90
2018,05,17,09,29,14.90
2018,05,17,09,30,14.90
2018,05,17,09,31,14.80
2018,05,17,09,32,14.80
2018,05,17,09,33,14.70
2018,05,17,09,34,14.60
2018,05,17,09,35,14.60
2018,05,17,09,36,14.60
2018,05,17,09,37,14.60
2018,05,17,09,38,14.60
2018,05,17,09,39,14.70
2018,05,17,09,40,14.80
2018,05,17,09,41,14.90
2018,05,17,09,42,14.90
2018,05,17,09,43,14.90
2018,05,17,09,44,15.00
2018,05,17,09,45,15.10
2018,05,17,09,46,15.10
2018,05,17,09,47,15.20
2018,05,17,09,48,15.30
2018,05,17,09,49,15.40
2018,05,17,09,50,15.50
2018,05,17,09,51,15.50
2018,05,17,09,52,15.60
2018,05,17,09,53,15.70
2018,05,17,09,54,15.70
2018,05,17,09,55,15.80
2018,05,17,09,56,15.90
2018,05,17,09,57,15.90
2018,05,17,09,58,15.90
2018,05,17,09,59,15.90
2018,05,17,10,00,16.00
2018,05,17,10,01,16.00
2018,05,17,10,02,16.00
2018,05,17,10,03,16.00
2018,05,17,10,04,16.10
2018,05,17,10,05,16.10
2018,05,17,10,06,16.00
2018,05,17,10,07,16.00
2018,05,17,10,08,16.00
2018,05,17,10,09,16.00
2018,05,17,10,10,16.00
2018,05,17,10,11,15.90
2018,05,17,10,12,15.90
2018,05,17,10,13,15.90
2018,05,17,10,14,15.90
2018,05,17,10,15,16.00
2018,05,17,10,16,15.90
2018,05,17,10,17,15.90
2018,05,17,10,18,15.90
2018,05,17,10,19,15.90
2018,05,17,10,20,15.90
2018,05,17,10,21,15.90
2018,05,17,10,22,15.90
2018,05,17,10,23,15.90
2018,05,17,10,24,15.90
2018,05,17,10,25,15.80
2018,05,17,10,26,15.80
2018,05,17,10,27,15.80
2018,05,17,10,28,15.80
2018,05,17,10,29,15.80
2018,05,17,10,30,15.80
2018,05,17,10,31,15.80
2018,05,17,10,32,15.80
2018,05,17,10,33,15.80
2018,05,17,10,34,15.80
2018,05,17,10,35,15.80
2018,05,17,10,36,15.80
2018,05,17,10,37,15.70
2018,05,17,10,38,15.70
2018,05,17,10,39,15.70
2018,05,17,10,40,15.70
2018,05,17,10,41,15.70
2018,05,17,10,42,15.80
2018,05,17,10,43,15.80
2018,05,17,10,44,15.90
2018,05,17,10,45,15.90
2018,05,17,10,46,16.00
2018,05,17,10,47,16.00
2018,05,17,10,48,16.10
2018,05,17,10,49,16.10
2018,05,17,10,50,16.20
2018,05,17,10,51,16.20
2018,05,17,10,52,16.20
2018,05,17,10,53,16.20
2018,05,17,10,54,16.40
2018,05,17,10,55,16.30
2018,05,17,10,56,16.40
2018,05,17,10,57,16.40
2018,05,17,10,58,16.50
2018,05,17,10,59,16.60
2018,05,17,11,00,16.60
2018,05,17,11,01,16.70
2018,05,17,11,02,16.70
2018,05,17,11,03,16.80
2018,05,17,11,04,16.80
2018,05,17,11,05,16.90
2018,05,17,11,06,16.90
2018,05,17,11,07,16.80
2018,05,17,11,08,16.90
2018,05,17,11,09,16.90
2018,05,17,11,10,16.90
2018,05,17,11,11,17.00
2018,05,17,11,12,17.10
2018,05,17,11,13,17.20
2018,05,17,11,14,17.30
2018,05,17,11,15,17.40
2018,05,17,11,16,17.40
2018,05,17,11,17,17.40
2018,05,17,11,18,17.40
2018,05,17,11,19,17.40
2018,05,17,11,20,17.40
2018,05,17,11,21,17.40
2018,05,17,11,22,17.40
2018,05,17,11,23,17.50
2018,05,17,11,24,17.50
2018,05,17,11,25,17.60
2018,05,17,11,26,17.60
2018,05,17,11,27,17.60
2018,05,17,11,28,17.70
2018,05,17,11,29,17.80
2018,05,17,11,30,17.90
2018,05,17,11,31,17.90
2018,05,17,11,32,17.90
2018,05,17,11,33,17.90
2018,05,17,11,34,17.90
2018,05,17,11,35,17.90
2018,05,17,11,36,17.80
2018,05,17,11,37,17.80
2018,05,17,11,38,17.70
2018,05,17,11,39,17.70
2018,05,17,11,40,17.70
2018,05,17,11,41,17.70
2018,05,17,11,42,17.70
2018,05,17,11,43,17.70
2018,05,17,11,44,17.70
2018,05,17,11,45,17.70
2018,05,17,11,46,17.70
2018,05,17,11,47,17.60
2018,05,17,11,48,17.50
2018,05,17,11,49,17.30
2018,05,17,11,50,17.20
2018,05,17,11,51,17.10
2018,05,17,11,52,17.10
2018,05,17,11,53,17.00
2018,05,17,11,54,16.90
2018,05,17,11,55,16.90
2018,05,17,11,56,16.90
2018,05,17,11,57,16.90
2018,05,17,11,58,16.90
2018,05,17,11,59,16.90
2018,05,17,12,00,16.80
2018,05,17,12,01,16.80
2018,05,17,12,02,16.70
2018,05,17,12,03,16.70
2018,05,17,12,04,16.60
2018,05,17,12,05,16.60
2018,05,17,12,06,16.60
2018,05,17,12,07,16.50
2018,05,17,12,08,16.40
2018,05,17,12,09,16.30
2018,05,17,12,10,16.20
2018,05,17,12,11,16.10
2018,05,17,12,12,16.00
2018,05,17,12,13,16.00
2018,05,17,12,14,15.90
2018,05,17,12,15,15.90
2018,05,17,12,16,15.90
2018,05,17,12,17,15.90
2018,05,17,12,18,15.80
2018,05,17,12,19,15.80
2018,05,17,12,20,15.90
2018,05,17,12,21,16.00
2018,05,17,12,22,16.10
2018,05,17,12,23,16.20
2018,05,17,12,24,16.20
2018,05,17,12,25,16.30
2018,05,17,12,26,16.20
2018,05,17,12,27,16.20
2018,05,17,12,28,16.00
2018,05,17,12,29,15.90
2018,05,17,12,30,15.80
2018,05,17,12,31,15.90
2018,05,17,12,32,16.00
2018,05,17,12,33,16.20
2018,05,17,12,34,16.30
2018,05,17,12,35,16.30
2018,05,17,12,36,16.30
2018,05,17,12,37,16.30
2018,05,17,12,38,16.30
2018,05,17,12,39,16.20
2018,05,17,12,40,16.20
2018,05,17,12,41,16.10
2018,05,17,12,42,16.00
2018,05,17,12,43,15.90
2018,05,17,12,44,15.90
2018,05,17,12,45,15.90
2018,05,17,12,46,16.00
2018,05,17,12,47,16.10
2018,05,17,12,48,16.20
2018,05,17,12,49,16.30
2018,05,17,12,50,16.30
2018,05,17,12,51,16.30
2018,05,17,12,52,16.40
2018,05,17,12,53,16.40
2018,05,17,12,54,16.40
2018,05,17,12,55,16.40
2018,05,17,12,56,16.30
2018,05,17,12,57,16.20
2018,05,17,12,58,16.20
2018,05,17,12,59,16.20
2018,05,17,13,00,16.30
2018,05,17,13,01,16.40
2018,05,17,13,02,16.50
2018,05,17,13,03,16.70
2018,05,17,13,04,16.80
2018,05,17,13,05,17.00
2018,05,17,13,06,17.10
2018,05,17,13,07,17.20
2018,05,17,13,08,17.20
2018,05,17,13,09,17.20
2018,05,17,13,10,17.30
2018,05,17,13,11,17.30
2018,05,17,13,12,17.40
2018,05,17,13,13,17.50
2018,05,17,13,14,17.60
2018,05,17,13,15,17.70
2018,05,17,13,16,17.70
2018,05,17,13,17,17.70
2018,05,17,13,18,17.80
2018,05,17,13,19,17.80
2018,05,17,13,20,17.80
2018,05,17,13,21,17.90
2018,05,17,13,22,17.80
2018,05,17,13,23,17.80
2018,05,17,13,24,17.70
2018,05,17,13,25,17.70
2018,05,17,13,26,17.70
2018,05,17,13,27,17.70
2018,05,17,13,28,17.80
2018,05,17,13,29,17.80
2018,05,17,13,30,17.80
2018,05,17,13,31,17.70
2018,05,17,13,32,17.70
2018,05,17,13,33,17.60
2018,05,17,13,34,17.50
2018,05,17,13,35,17.50
2018,05,17,13,36,17.40
2018,05,17,13,37,17.30
2018,05,17,13,38,17.20
2018,05,17,13,39,17.20
2018,05,17,13,40,17.20
2018,05,17,13,41,17.20
2018,05,17,13,42,17.10
2018,05,17,13,43,17.10
2018,05,17,13,44,17.00
2018,05,17,13,45,16.90
2018,05,17,13,46,16.90
2018,05,17,13,47,17.00
2018,05,17,13,48,17.10
2018,05,17,13,49,17.20
2018,05,17,13,50,17.10
2018,05,17,13,51,17.10
2018,05,17,13,52,17.20
2018,05,17,13,53,17.30
2018,05,17,13,54,17.40
2018,05,17,13,55,17.60
2018,05,17,13,56,17.70
2018,05,17,13,57,17.70
2018,05,17,13,58,17.70
2018,05,17,13,59,17.70
2018,05,17,14,00,17.70
2018,05,17,14,01,17.70
2018,05,17,14,02,17.60
2018,05,17,14,03,17.60
2018,05,17,14,04,17.50
2018,05,17,14,05,17.50
2018,05,17,14,06,17.50
2018,05,17,14,07,17.60
2018,05,17,14,08,17.60
2018,05,17,14,09,17.70
2018,05,17,14,10,17.70
2018,05,17,14,11,17.80
2018,05,17,14,12,17.80
2018,05,17,14,13,17.90
2018,05,17,14,14,17.90
2018,05,17,14,15,17.90
2018,05,17,14,16,18.00
2018,05,17,14,17,18.00
2018,05,17,14,18,18.00
2018,05,17,14,19,18.00
2018,05,17,14,20,18.00
2018,05,17,14,21,17.90
2018,05,17,14,22,17.90
2018,05,17,14,23,18.00
2018,05,17,14,24,18.10
2018,05,17,14,25,18.10
2018,05,17,14,26,18.20
2018,05,17,14,27,18.20
2018,05,17,14,28,18.30
2018,05,17,14,29,18.40
2018,05,17,14,30,18.40
2018,05,17,14,31,18.50
2018,05,17,14,32,18.50
2018,05,17,14,33,18.50
2018,05,17,14,34,18.60
2018,05,17,14,35,18.60
2018,05,17,14,36,18.70
2018,05,17,14,37,18.80
2018,05,17,14,38,18.80
2018,05,17,14,39,18.70
2018,05,17,14,40,18.60
2018,05,17,14,41,18.60
2018,05,17,14,42,18.50
2018,05,17,14,43,18.50
2018,05,17,14,44,18.50
2018,05,17,14,45,18.60
2018,05,17,14,46,18.60
2018,05,17,14,47,18.60
2018,05,17,14,48,18.60
2018,05,17,14,49,18.60
2018,05,17,14,50,18.60
2018,05,17,14,51,18.70
2018,05,17,14,52,18.70
2018,05,17,14,53,18.70
2018,05,17,14,54,18.70
2018,05,17,14,55,18.70
2018,05,17,14,56,18.70
2018,05,17,14,57,18.70
2018,05,17,14,58,18.70
2018,05,17,14,59,18.80
2018,05,17,15,00,18.80
2018,05,17,15,01,18.90
2018,05,17,15,02,18.90
2018,05,17,15,03,18.90
2018,05,17,15,04,18.90
2018,05,17,15,05,18.90
2018,05,17,15,06,18.80
2018,05,17,15,07,18.80
2018,05,17,15,08,18.70
2018,05,17,15,09,18.60
2018,05,17,15,10,18.60
2018,05,17,15,11,18.60
2018,05,17,15,12,18.60
2018,05,17,15,13,18.70
2018,05,17,15,14,18.70
2018,05,17,15,15,18.70
2018,05,17,15,16,18.80
2018,05,17,15,17,18.80
2018,05,17,15,18,18.80
2018,05,17,15,19,18.80
2018,05,17,15,20,18.80
2018,05,17,15,21,18.80
2018,05,17,15,22,18.80
2018,05,17,15,23,18.80
2018,05,17,15,24,18.80
2018,05,17,15,25,18.80
2018,05,17,15,26,18.80
2018,05,17,15,27,18.80
2018,05,17,15,28,18.80
2018,05,17,15,29,18.80
2018,05,17,15,30,18.80
2018,05,17,15,31,18.80
2018,05,17,15,32,18.80
2018,05,17,15,33,18.80
2018,05,17,15,34,18.70
2018,05,17,15,35,18.60
2018,05,17,15,36,18.50
2018,05,17,15,37,18.40
2018,05,17,15,38,18.40
2018,05,17,15,39,18.40
2018,05,17,15,40,18.40
2018,05,17,15,41,18.50
2018,05,17,15,42,18.60
2018,05,17,15,43,18.60
2018,05,17,15,44,18.60
2018,05,17,15,45,18.70
2018,05,17,15,46,18.80
2018,05,17,15,47,18.80
2018,05,17,15,48,18.80
2018,05,17,15,49,18.90
2018,05,17,15,50,18.90
2018,05,17,15,51,19.00
2018,05,17,15,52,19.00
2018,05,17,15,53,19.10
2018,05,17,15,54,19.10
2018,05,17,15,55,19.10
2018,05,17,15,56,19.20
2018,05,17,15,57,19.20
2018,05,17,15,58,19.20
2018,05,17,15,59,19.20
2018,05,17,16,00,19.20
2018,05,17,16,01,19.20
2018,05,17,16,02,19.20
2018,05,17,16,03,19.20
2018,05,17,16,04,19.20
2018,05,17,16,05,19.20
2018,05,17,16,06,19.20
2018,05,17,16,07,19.30
2018,05,17,16,08,19.30
2018,05,17,16,09,19.30
2018,05,17,16,10,19.40
2018,05,17,16,11,19.50
2018,05,17,16,12,19.60
2018,05,17,16,13,19.60
2018,05,17,16,14,19.70
2018,05,17,16,15,19.80
2018,05,17,16,16,19.90
2018,05,17,16,17,19.90
2018,05,17,16,18,19.90
2018,05,17,16,19,20.00
2018,05,17,16,20,20.00
2018,05,17,16,21,20.10
2018,05,17,16,22,20.10
2018,05,17,16,23,20.10
2018,05,17,16,24,20.10
2018,05,17,16,25,20.10
2018,05,17,16,26,20.10
2018,05,17,16,27,20.10
2018,05,17,16,28,20.10
2018,05,17,16,29,20.10
2018,05,17,16,30,20.00
2018,05,17,16,31,20.00
2018,05,17,16,32,20.00
2018,05,17,16,33,20.00
2018,05,17,16,34,20.00
2018,05,17,16,35,20.00
2018,05,17,16,36,20.10
2018,05,17,16,37,20.10
2018,05,17,16,38,20.20
2018,05,17,16,39,20.20
2018,05,17,16,40,20.30
2018,05,17,16,41,20.30
2018,05,17,16,42,20.30
2018,05,17,16,43,20.20
2018,05,17,16,44,20.20
2018,05,17,16,45,20.20
2018,05,17,16,46,20.20
2018,05,17,16,47,20.20
2018,05,17,16,48,20.20
2018,05,17,16,49,20.30
2018,05,17,16,50,20.30
2018,05,17,16,51,20.30
2018,05,17,16,52,20.30
2018,05,17,16,53,20.40
2018,05,17,16,54,20.40
2018,05,17,16,55,20.40
2018,05,17,16,56,20.40
2018,05,17,16,57,20.40
2018,05,17,16,58,20.40
2018,05,17,16,59,20.40
2018,05,17,17,00,20.40
2018,05,17,17,01,20.30
2018,05,17,17,02,20.30
2018,05,17,17,03,20.30
2018,05,17,17,04,20.30
2018,05,17,17,05,20.30
2018,05,17,17,06,20.20
2018,05,17,17,07,20.20
2018,05,17,17,08,20.10
2018,05,17,17,09,20.00
2018,05,17,17,10,19.90
2018,05,17,17,11,19.80
2018,05,17,17,12,19.70
2018,05,17,17,13,19.50
2018,05,17,17,14,19.40
2018,05,17,17,15,19.30
2018,05,17,17,16,19.30
2018,05,17,17,17,19.30
2018,05,17,17,18,19.20
2018,05,17,17,19,19.20
2018,05,17,17,20,19.10
2018,05,17,17,21,19.10
2018,05,17,17,22,19.10
2018,05,17,17,23,19.10
2018,05,17,17,24,19.10